Weather in Kataragama

Sri Lanka     6°30′02″N   81°18′59″E
В апреле 2022 года жителям России запретили посещать сайт meteo.paraplan.net по решению Генеральной прокуратуры. Аудитория сайта уменьшилась в 10 раз. Владельцы сайта не видят смысла в поддержке погодного сервера в таких условиях. Сайт будет закрыт в октябре.
temp.,
°C
wind,
m/s
gust,
m/s
humid.,
%
clouds,
%
prec.,
mm/h
press.,
hPa
HPBL,
m
26 september, mon
mon2623:30+25wsw2481100 2.8 1009137
02:30+25wsw3881100 0.3 1008272
05:30+25sw258291 2.2 1008173
08:30+30w455537 0.0 1010709
11:30+35w6537100 0.0 10081738
14:30+35w653744 0.0 10052379
17:30+31wsw794919 0.0 10061151
20:30+26wsw61173100 1.9 1009552
27 september, tue
tue2723:30+25wsw5108082 2.4 1009452
02:30+25wsw4981100 0.2 1008368
05:30+24sw498339 0.2 1009342
08:30+30w68515 0.0 10101032
11:30+36w553513 0.0 10072114
14:30+35w643754 0.0 10042202
17:30+31w784713 0.1 10051142
20:30+26wsw5117374 1.1 1008529
28 september, wed
wed2823:30+25wsw5108094 1.6 1008475
02:30+25wsw41080100 1.9 1007461
05:30+24wsw4981100 2.3 1008334
08:30+29wsw6963100 0.0 1009886
11:30+33wsw7742100 0.0 10071857
14:30+32wsw9945100 0.0 10051731
17:30+29wsw81155100 0.0 10061081
20:30+26wsw61276100 0.0 1009712
29 september, thu
thu2923:30+25wsw61378100 0.0 1008776
02:30+25wsw61376100 0.0 1006702
05:30+25wsw61379100 0.0 1007680
08:30+29wsw91259100 0.0 10081009
11:30+34wsw91039100 0.0 10071755
14:30+33wsw101139100 0.0 10041829
17:30+29wsw9135892 0.2 1006948
20:30+26wsw71375100 0.1 1009696
30 september, fri
fri3023:30+26wsw71376100 0.1 1009748
02:30+25wsw61278100 0.0 1007742
05:30+25sw61278100 0.0 1008607
08:30+29wsw81260100 0.0 10101181
11:30+34wsw91240100 0.0 10081883
14:30+32wsw101345100 0.0 10061425
17:30+28wsw81360100 0.0 1007969
20:30+26sw61176100 0.0 1010669